Regional Weather Roundup
Issued by NWS

Home | Current Version | Previous Version | Text Only | Print | Product List | Glossary Off
Versions: 1 2 3 4 5 6 7 8 9 10 11 12 13 14 15 16 17 18 19 20 21 22 23 24 25 26 27 28 29 30 31 32 33 34 35 36 37 38 39 40 41 42 43 44 45 46 47 48 49 50

000
ASUS43 KMPX 221701
RWRMN
WEATHER ROUNDUP FOR MINNESOTA
NATIONAL WEATHER SERVICE TWIN CITIES/CHANHASSEN MN
1200 PM CDT TUE AUG 22 2017


NOTE: "FAIR" INDICATES FEW OR NO CLOUDS BELOW 12,000 FEET WITH NO
SIGNIFICANT WEATHER AND/OR OBSTRUCTIONS TO VISIBILITY. N/A MEANS
CURRENT SKY AND/OR WEATHER CONDITIONS ARE NOT AVAILABLE.

MNZ060>063-068>070-221800-
   Twin Cities Metro

CITY           SKY/WX    TMP DP  RH WIND       PRES   REMARKS
TWIN CITIES    SUNNY     71  50  47 NW14G28   30.05S
ST PAUL        SUNNY     71  51  49 NW20G25   30.04S
CRYSTAL        SUNNY     70  48  45 NW15G23   30.03S
BLAINE         MOSUNNY   72  52  49 W14G21    30.04S
LAKEVILLE      SUNNY     68  52  56 W13G18    30.06S
EDEN PRAIRIE   SUNNY     71  52  50 NW13      30.05S
SOUTH ST PAUL  SUNNY     71  49  46 NW16G22   30.04S
LAKE ELMO      FAIR      70  52  52 NW13      30.04S
$$
MNZ001>005-007-008-013>017-022>024-027-028-221800-
   Northwest Minnesota

CITY           SKY/WX    TMP DP  RH WIND       PRES   REMARKS
BEMIDJI        MOSUNNY   66  46  48 W20G28    30.02S
HALLOCK        SUNNY     72  45  37 NW17G28   30.03R
ROSEAU         MOSUNNY   70  54  56 NW17G26   29.99R
WARROAD        MOSUNNY   66  54  63 NW17G25   29.98R
CROOKSTON      SUNNY     72  46  40 NW20G25   30.05F
FOSSTON        SUNNY     66  46  48 W15       30.06S
DETROIT LAKES  SUNNY     68  48  49 NW14G22   30.10R
MOORHEAD       SUNNY     72  45  37 NW18G24   30.10R
PARK RAPIDS    SUNNY     69  50  50 NW18      30.05S
MAHNOMEN       FAIR      67  49  52 NW12G24   30.07S
$$
MNZ006-009>011-018-025>026-221800-
   North Central Minnesota

CITY           SKY/WX    TMP DP  RH WIND       PRES   REMARKS
BAUDETTE       PTSUNNY   65  53  65 NW23G31   29.95S
FLAG ISLAND    CLOUDY    63  52  67 NW15      29.94R
INTL FALLS     PTSUNNY   64  51  62 NW14G23   29.92R
WASKISH        CLOUDY    66  52  59 NW14G25   29.98S
BIG FORK       MOSUNNY   66  52  59 W6        29.96S
LONGVILLE      MOSUNNY   66  52  59 W10G18    30.02S
GRAND RAPIDS   CLOUDY    65  51  60 W17G23    29.99F
CRANE LAKE     CLOUDY    59  52  77 W5        29.92S
ORR            PTSUNNY   63  50  63 NW9G16    29.90S
COOK           CLOUDY    63  52  67 W15G22    29.93S
WALKER         FAIR      66  49  53 NW16G25   30.02S
$$
MNZ012-019>021-037-221800-
   Northeast Minnesota

CITY           SKY/WX    TMP DP  RH WIND       PRES   REMARKS
DULUTH         MOSUNNY   65  50  58 NW17G25   29.94R
ELY            PTSUNNY   61  48  63 W13G24    29.90R
HIBBING        PTSUNNY   61  49  64 NW18G30   29.95S
EVELETH        MOSUNNY   63  48  58 NW18G24   29.95R
DULUTH HARBOR  PTSUNNY   70  54  56 W18G26    29.93
SILVER BAY     PTSUNNY   66  52  59 NW8       29.87S
$$
MNZ029>031-032-039>041-046>048-054>057-064-221800-
   West Central Minnesota

CITY           SKY/WX    TMP DP  RH WIND       PRES   REMARKS
FERGUS FALLS   SUNNY     66  54  63 W10       30.10F
WHEATON        SUNNY     70  48  46 W13       30.14S
MORRIS         SUNNY     70  54  56 NW14      30.11S
ALEXANDRIA     SUNNY     68  53  58 W10G21    30.11S
ELBOW LAKE     FAIR      66  52  61 NW9       30.12S
WADENA         SUNNY     66  50  55 NW10G17   30.07S
GLENWOOD       SUNNY     68  52  56 W17       30.11R
APPLETON       SUNNY     72  46  40 NW13      30.12S
BENSON         SUNNY     72  50  46 NW14      30.13S
ORTONVILLE     SUNNY     70  46  43 MISG      30.13S
MADISON        SUNNY     73  52  46 NW14      30.14S
WILLMAR        FAIR      70  54  56 W14       30.12S
$$
MNZ033>034-036-042>043-049>051-058-059-221800-
   Central Minnesota

CITY           SKY/WX    TMP DP  RH WIND       PRES   REMARKS
ST CLOUD       SUNNY     71  50  47 W17       30.05S
SAUK CENTRE    FAIR      68  50  52 W15G23    30.09R
PAYNESVILLE    SUNNY     68  53  58 W16       30.09S
AITKIN         MOSUNNY   66  52  59 NW9G18    30.00S
PINE RIVER     MOSUNNY   64  46  52 NW17G23   30.06S
BRAINERD       SUNNY     67  50  54 NW14G22   30.04R
STAPLES        SUNNY     68  46  45 NW16      30.06S
LONG PRAIRIE   FAIR      68  48  49 W15       30.08S
LITTLE FALLS   SUNNY     68  46  45 NW10G24   30.06R
LITCHFIELD     SUNNY     70  55  60 W12G17    30.09S
BUFFALO        SUNNY     70  49  48 W13G20    30.07S
MAPLE LAKE     SUNNY     70  54  57 NW10G16   30.07S
HUTCHINSON     SUNNY     69  56  61 W13       30.11R
$$
MNZ037-044-045-052-053-221800-
   East Central Minnesota

CITY           SKY/WX    TMP DP  RH WIND       PRES   REMARKS
PRINCETON      SUNNY     72  52  49 W16G23    30.04S
MORA           SUNNY     68  48  49 NW15      30.02S
CAMBRIDGE      SUNNY     72  54  53 W8        30.03S
RUSH CITY      SUNNY     69  51  51 W8        30.01S
MOOSE LAKE     MOSUNNY   68  50  52 NW10G22   29.97R
HINCKLEY       FAIR      70  52  52 W9G20     30.00R
CLOQUET        MOSUNNY   66  46  48 NW17G24   29.96R
MCGREGOR       MOSUNNY   68  50  52 NW14G21   30.00S
$$
MNZ071>073-080-081-089-090-097-098-221800-
   Southwest Minnesota

CITY           SKY/WX    TMP DP  RH WIND       PRES   REMARKS
MONTEVIDEO     SUNNY     72  57  60 NW9G16    30.13S
GRANITE FALLS  SUNNY     70  52  52 W14G20    30.15S
CANBY          SUNNY     72  45  38 W15G22    30.16S
MARSHALL       SUNNY     70  50  49 NW16      30.14F
REDWOOD FALLS  SUNNY     70  54  56 NW14      30.12S
OLIVIA         SUNNY     70  55  60 W14       30.11S
PIPESTONE      SUNNY     70  46  43 N7G21     30.18S
WINDOM         SUNNY     68  48  49 NW13G18   30.15S
WORTHINGTON    SUNNY     68  49  50 NW15      30.18R
JACKSON        SUNNY     66  52  59 NW7G20    30.15S
TRACY          SUNNY     69  54  58 NW9       30.15S
SLAYTON        SUNNY     67  45  44 NW14      30.17S
$$
MNZ065>067-074>077-082>085-091>093-221800-
   South Central Minnesota

CITY           SKY/WX    TMP DP  RH WIND       PRES   REMARKS
MANKATO        SUNNY     68  54  60 NW15      30.11R
NEW ULM        SUNNY     68  54  60 W13       30.12R
ST JAMES       SUNNY     70  52  52 NW10G18   30.13F
FAIRMONT       SUNNY     68  52  56 MISG      30.13S
GLENCOE        SUNNY     70  58  65 W9G17     30.08S
FARIBAULT      SUNNY     68  54  60 NW10G17   30.08R
OWATONNA       SUNNY     68  54  60 NW15G23   30.08R
WASECA         SUNNY     68  54  60 NW10G16   30.11R
ALBERT LEA     SUNNY     70  54  56 NW13G18   30.10R
$$
MNZ078>079-086>088-094>096-221800-
   Southeast Minnesota

CITY           SKY/WX    TMP DP  RH WIND       PRES   REMARKS
ROCHESTER      MOSUNNY   67  54  63 NW15      30.06S
RED WING       MOSUNNY   72  48  43 NW9       30.02S
STANTON        SUNNY     69  53  56 NW13      30.05R
DODGE CENTER   SUNNY     66  52  59 NW14G20   30.07R
WINONA         SUNNY     70  52  52 N10G22    30.02R
AUSTIN         SUNNY     66  52  59 NW16      30.08R
PRESTON        MOSUNNY   66  52  59 NW14G21   30.05S
$$
ABBREVIATIONS USED IN REMARKS
   TC - TEMPERATURES IN CELSIUS
  WCI - WIND CHILL INDEX
   HX - HEAT INDEX
  VSB - VISIBILITY
$$




USA.gov is the U.S. government's official web portal to all federal, state and local government web resources and services.